GFSFLT2_prec_precacc24_120.txt.gz
Total_Precipitation_Accumulation
0.07 0.07 0.09 0.10 0.14 0.16 0.12 0.07 0.05 0.04 0.01 0.00 0.00 0.00 0.00 0.00 0.00 0.00 0.00 0.00 0.01 0.02 0.03 0.04 0.06 0.07 0.07
0.21 0.18 0.16 0.13 0.12 0.11 0.08 0.06 0.04 0.05 0.03 0.01 0.00 0.00 0.00 0.00 0.00 0.00 0.00 0.00 0.00 0.01 0.02 0.03 0.05 0.08 0.09
0.26 0.21 0.18 0.16 0.17 0.17 0.14 0.11 0.08 0.09 0.06 0.03 0.01 0.01 0.00 0.00 0.00 0.00 0.00 0.00 0.00 0.00 0.03 0.07 0.07 0.09 0.12
0.24 0.21 0.19 0.20 0.26 0.27 0.26 0.24 0.20 0.16 0.12 0.06 0.04 0.02 0.01 0.00 0.00 0.00 0.00 0.00 0.00 0.00 0.04 0.17 0.16 0.17 0.08
0.29 0.27 0.25 0.23 0.24 0.23 0.23 0.20 0.20 0.16 0.14 0.10 0.06 0.03 0.02 0.02 0.00 0.00 0.00 0.00 0.00 0.00 0.01 0.14 0.26 0.26 0.11
0.24 0.24 0.20 0.22 0.24 0.23 0.23 0.24 0.23 0.15 0.16 0.12 0.09 0.08 0.04 0.01 0.00 0.00 0.00 0.00 0.00 0.00 0.00 0.04 0.16 0.19 0.12
0.10 0.12 0.14 0.15 0.20 0.21 0.20 0.19 0.15 0.09 0.10 0.09 0.05 0.03 0.02 0.02 0.03 0.01 0.00 0.00 0.00 0.00 0.00 0.00 0.03 0.02 0.02
0.06 0.08 0.12 0.14 0.19 0.21 0.20 0.21 0.20 0.14 0.09 0.07 0.02 0.02 0.02 0.02 0.01 0.00 0.00 0.00 0.00 0.00 0.00 0.00 0.00 0.01 0.00
0.06 0.09 0.17 0.25 0.28 0.33 0.34 0.29 0.27 0.18 0.16 0.17 0.09 0.05 0.02 0.02 0.00 0.00 0.00 0.00 0.00 0.00 0.00 0.00 0.00 0.00 0.00
0.14 0.15 0.16 0.16 0.22 0.16 0.17 0.27 0.31 0.28 0.28 0.35 0.28 0.23 0.17 0.07 0.02 0.00 0.00 0.00 0.00 0.00 0.00 0.00 0.00 0.00 0.00
0.13 0.13 0.15 0.20 0.26 0.27 0.25 0.24 0.20 0.17 0.15 0.25 0.32 0.38 0.36 0.18 0.05 0.00 0.00 0.00 0.00 0.00 0.00 0.00 0.00 0.00 0.00
0.10 0.11 0.13 0.16 0.20 0.30 0.39 0.48 0.44 0.39 0.27 0.17 0.11 0.12 0.17 0.14 0.06 0.00 0.00 0.00 0.00 0.00 0.00 0.00 0.00 0.00 0.00
0.08 0.07 0.09 0.17 0.30 0.37 0.32 0.24 0.26 0.35 0.38 0.29 0.19 0.12 0.07 0.05 0.03 0.00 0.00 0.00 0.00 0.00 0.00 0.00 0.00 0.00 0.00
0.21 0.25 0.32 0.32 0.28 0.28 0.28 0.27 0.27 0.26 0.29 0.29 0.31 0.23 0.13 0.08 0.03 0.00 0.00 0.00 0.00 0.00 0.00 0.00 0.00 0.00 0.00
0.50 0.46 0.44 0.34 0.27 0.25 0.23 0.21 0.17 0.15 0.25 0.29 0.23 0.20 0.14 0.08 0.03 0.00 0.00 0.00 0.00 0.00 0.00 0.00 0.00 0.00 0.00
0.45 0.49 0.47 0.37 0.27 0.24 0.20 0.19 0.16 0.18 0.17 0.21 0.26 0.22 0.14 0.03 0.00 0.00 0.00 0.00 0.00 0.00 0.00 0.00 0.00 0.00 0.00
0.43 0.37 0.32 0.31 0.33 0.29 0.24 0.20 0.16 0.15 0.16 0.14 0.15 0.16 0.16 0.10 0.02 0.00 0.00 0.00 0.00 0.00 0.00 0.00 0.00 0.00 0.00

GFSFLT2_prec_precacc24_123.txt.gz
Total_Precipitation_Accumulation
0.08 0.07 0.09 0.10 0.14 0.16 0.12 0.07 0.05 0.05 0.02 0.01 0.00 0.00 0.00 0.00 0.00 0.00 0.00 0.00 0.00 0.01 0.02 0.03 0.06 0.07 0.07
0.22 0.18 0.16 0.13 0.12 0.11 0.08 0.06 0.05 0.07 0.08 0.07 0.06 0.03 0.02 0.01 0.01 0.00 0.00 0.00 0.00 0.01 0.01 0.02 0.04 0.07 0.09
0.26 0.22 0.18 0.16 0.17 0.17 0.15 0.11 0.09 0.13 0.13 0.12 0.12 0.08 0.06 0.04 0.02 0.01 0.00 0.00 0.00 0.00 0.01 0.05 0.06 0.07 0.10
0.23 0.21 0.20 0.20 0.26 0.27 0.26 0.24 0.21 0.18 0.18 0.16 0.18 0.14 0.10 0.07 0.04 0.02 0.01 0.00 0.00 0.00 0.02 0.10 0.12 0.13 0.05
0.29 0.27 0.26 0.24 0.24 0.23 0.23 0.20 0.20 0.17 0.16 0.16 0.16 0.16 0.14 0.14 0.10 0.06 0.04 0.02 0.02 0.01 0.01 0.10 0.19 0.19 0.08
0.24 0.24 0.21 0.23 0.26 0.24 0.24 0.25 0.24 0.15 0.17 0.14 0.14 0.14 0.10 0.08 0.08 0.07 0.06 0.05 0.03 0.01 0.01 0.04 0.16 0.16 0.08
0.10 0.12 0.15 0.16 0.22 0.23 0.21 0.20 0.16 0.11 0.13 0.14 0.13 0.16 0.16 0.18 0.24 0.19 0.14 0.12 0.07 0.04 0.01 0.01 0.03 0.02 0.01
0.06 0.08 0.12 0.15 0.20 0.23 0.22 0.24 0.23 0.18 0.15 0.17 0.09 0.10 0.13 0.12 0.21 0.19 0.12 0.08 0.05 0.04 0.02 0.00 0.00 0.01 0.00
0.07 0.10 0.17 0.25 0.29 0.34 0.36 0.32 0.32 0.21 0.18 0.23 0.17 0.15 0.14 0.15 0.20 0.26 0.17 0.08 0.05 0.03 0.00 0.00 0.00 0.00 0.00
0.14 0.15 0.16 0.17 0.22 0.17 0.18 0.31 0.38 0.33 0.30 0.43 0.38 0.32 0.32 0.24 0.17 0.17 0.19 0.17 0.09 0.03 0.00 0.00 0.00 0.00 0.00
0.13 0.13 0.16 0.20 0.26 0.28 0.26 0.28 0.27 0.23 0.20 0.34 0.39 0.49 0.57 0.40 0.29 0.27 0.27 0.16 0.08 0.01 0.00 0.00 0.00 0.00 0.00
0.10 0.11 0.13 0.16 0.20 0.30 0.40 0.49 0.49 0.45 0.36 0.28 0.19 0.21 0.35 0.33 0.27 0.24 0.21 0.15 0.11 0.05 0.00 0.00 0.00 0.00 0.00
0.08 0.08 0.10 0.17 0.30 0.38 0.33 0.26 0.29 0.41 0.47 0.41 0.31 0.25 0.20 0.14 0.15 0.20 0.17 0.08 0.05 0.01 0.00 0.00 0.00 0.00 0.00
0.22 0.26 0.33 0.32 0.29 0.29 0.29 0.28 0.28 0.29 0.34 0.38 0.42 0.34 0.22 0.15 0.10 0.08 0.08 0.06 0.02 0.00 0.00 0.00 0.00 0.00 0.00
0.50 0.47 0.44 0.35 0.28 0.27 0.24 0.23 0.18 0.16 0.29 0.37 0.35 0.32 0.24 0.17 0.11 0.08 0.03 0.03 0.00 0.00 0.00 0.00 0.00 0.00 0.00
0.45 0.49 0.47 0.38 0.29 0.25 0.22 0.21 0.18 0.20 0.20 0.24 0.32 0.31 0.26 0.16 0.11 0.05 0.02 0.01 0.00 0.00 0.00 0.00 0.00 0.00 0.00
0.43 0.37 0.33 0.32 0.35 0.30 0.26 0.22 0.18 0.17 0.18 0.16 0.19 0.23 0.27 0.21 0.12 0.05 0.01 0.01 0.00 0.00 0.00 0.00 0.00 0.00 0.00

GFSFLT2_prec_precacc24_126.txt.gz
Total_Precipitation_Accumulation
0.10 0.08 0.09 0.10 0.14 0.16 0.12 0.07 0.05 0.05 0.02 0.02 0.01 0.01 0.01 0.01 0.01 0.01 0.01 0.00 0.00 0.01 0.02 0.03 0.05 0.06 0.06
0.23 0.18 0.16 0.13 0.13 0.11 0.08 0.06 0.05 0.07 0.08 0.07 0.07 0.06 0.05 0.06 0.06 0.06 0.05 0.04 0.03 0.02 0.02 0.02 0.04 0.06 0.08
0.26 0.22 0.18 0.16 0.17 0.17 0.15 0.11 0.09 0.13 0.13 0.13 0.13 0.11 0.08 0.07 0.07 0.07 0.08 0.06 0.04 0.02 0.02 0.03 0.05 0.06 0.09
0.24 0.21 0.20 0.21 0.26 0.27 0.26 0.24 0.21 0.18 0.18 0.16 0.18 0.15 0.12 0.10 0.08 0.06 0.05 0.05 0.05 0.03 0.03 0.05 0.08 0.10 0.04
0.29 0.28 0.26 0.24 0.24 0.24 0.24 0.20 0.21 0.17 0.16 0.16 0.16 0.16 0.16 0.18 0.15 0.12 0.09 0.10 0.12 0.11 0.08 0.08 0.13 0.15 0.05
0.24 0.24 0.21 0.23 0.26 0.24 0.24 0.25 0.24 0.16 0.17 0.15 0.14 0.14 0.10 0.09 0.13 0.13 0.13 0.14 0.16 0.15 0.11 0.09 0.13 0.10 0.06
0.10 0.12 0.15 0.16 0.22 0.23 0.22 0.21 0.17 0.12 0.14 0.15 0.13 0.16 0.16 0.18 0.29 0.29 0.27 0.30 0.33 0.28 0.19 0.12 0.09 0.04 0.02
0.06 0.08 0.12 0.15 0.20 0.23 0.23 0.25 0.24 0.18 0.15 0.18 0.10 0.10 0.14 0.14 0.26 0.32 0.32 0.31 0.31 0.28 0.24 0.20 0.14 0.09 0.06
0.07 0.10 0.17 0.25 0.30 0.36 0.37 0.33 0.33 0.22 0.18 0.23 0.18 0.16 0.15 0.16 0.24 0.42 0.41 0.31 0.27 0.21 0.14 0.10 0.09 0.06 0.02
0.14 0.15 0.16 0.17 0.22 0.18 0.19 0.33 0.40 0.36 0.30 0.44 0.40 0.35 0.33 0.24 0.17 0.19 0.30 0.32 0.28 0.23 0.16 0.09 0.05 0.03 0.01
0.13 0.13 0.16 0.21 0.27 0.28 0.27 0.29 0.29 0.25 0.23 0.39 0.42 0.50 0.58 0.40 0.30 0.30 0.36 0.35 0.30 0.24 0.17 0.13 0.07 0.03 0.01
0.10 0.11 0.13 0.16 0.20 0.30 0.40 0.50 0.50 0.47 0.38 0.31 0.22 0.24 0.40 0.36 0.28 0.27 0.30 0.27 0.25 0.23 0.19 0.10 0.05 0.03 0.00
0.08 0.08 0.10 0.17 0.30 0.38 0.33 0.26 0.29 0.41 0.48 0.41 0.34 0.29 0.24 0.17 0.17 0.23 0.26 0.18 0.18 0.14 0.11 0.05 0.01 0.00 0.00
0.22 0.26 0.33 0.32 0.29 0.29 0.30 0.28 0.29 0.29 0.34 0.38 0.43 0.36 0.25 0.18 0.14 0.14 0.15 0.14 0.15 0.12 0.04 0.01 0.00 0.00 0.00
0.50 0.47 0.44 0.35 0.28 0.27 0.26 0.23 0.19 0.17 0.29 0.37 0.36 0.34 0.27 0.20 0.14 0.11 0.07 0.08 0.11 0.09 0.01 0.00 0.00 0.00 0.00
0.46 0.49 0.48 0.38 0.29 0.26 0.22 0.22 0.19 0.21 0.21 0.24 0.33 0.33 0.28 0.18 0.13 0.07 0.03 0.03 0.05 0.02 0.00 0.00 0.00 0.00 0.00
0.43 0.37 0.34 0.32 0.36 0.31 0.27 0.22 0.19 0.17 0.18 0.17 0.20 0.24 0.29 0.23 0.15 0.07 0.02 0.01 0.01 0.00 0.00 0.00 0.00 0.00 0.00

GFSFLT2_prec_precacc24_129.txt.gz
Total_Precipitation_Accumulation
0.11 0.09 0.10 0.10 0.15 0.16 0.12 0.07 0.05 0.05 0.02 0.02 0.02 0.02 0.02 0.02 0.02 0.02 0.02 0.02 0.02 0.02 0.02 0.03 0.04 0.06 0.06
0.24 0.19 0.17 0.13 0.13 0.11 0.08 0.06 0.05 0.07 0.08 0.07 0.07 0.06 0.06 0.06 0.07 0.07 0.07 0.06 0.07 0.07 0.06 0.05 0.05 0.06 0.07
0.26 0.22 0.18 0.16 0.17 0.17 0.15 0.11 0.09 0.13 0.13 0.13 0.13 0.11 0.08 0.08 0.08 0.08 0.09 0.08 0.08 0.08 0.07 0.06 0.06 0.06 0.08
0.24 0.21 0.20 0.21 0.26 0.27 0.26 0.24 0.21 0.18 0.18 0.16 0.18 0.15 0.12 0.10 0.08 0.07 0.07 0.07 0.09 0.09 0.09 0.08 0.10 0.10 0.06
0.29 0.28 0.26 0.24 0.24 0.24 0.24 0.20 0.21 0.17 0.16 0.16 0.16 0.16 0.16 0.18 0.15 0.13 0.11 0.12 0.15 0.16 0.15 0.14 0.16 0.17 0.08
0.24 0.24 0.21 0.23 0.26 0.24 0.24 0.25 0.24 0.16 0.17 0.15 0.14 0.14 0.10 0.09 0.13 0.13 0.14 0.16 0.20 0.21 0.19 0.17 0.19 0.17 0.11
0.10 0.12 0.15 0.16 0.22 0.23 0.22 0.21 0.17 0.12 0.14 0.15 0.13 0.16 0.16 0.18 0.29 0.29 0.27 0.32 0.36 0.34 0.29 0.23 0.18 0.12 0.09
0.06 0.08 0.12 0.15 0.20 0.23 0.24 0.25 0.25 0.18 0.15 0.18 0.10 0.10 0.14 0.14 0.26 0.32 0.32 0.32 0.33 0.32 0.31 0.29 0.26 0.22 0.17
0.07 0.10 0.17 0.25 0.30 0.36 0.37 0.33 0.33 0.22 0.18 0.23 0.18 0.17 0.15 0.16 0.24 0.43 0.41 0.32 0.30 0.27 0.23 0.22 0.24 0.22 0.16
0.14 0.15 0.16 0.17 0.23 0.18 0.20 0.34 0.41 0.37 0.31 0.45 0.40 0.35 0.34 0.24 0.17 0.19 0.30 0.34 0.34 0.33 0.29 0.24 0.22 0.18 0.13
0.13 0.13 0.16 0.21 0.27 0.28 0.27 0.29 0.30 0.27 0.24 0.43 0.43 0.50 0.60 0.41 0.30 0.30 0.36 0.35 0.33 0.30 0.25 0.23 0.18 0.12 0.08
0.10 0.11 0.13 0.16 0.20 0.30 0.40 0.50 0.50 0.48 0.38 0.33 0.25 0.25 0.42 0.37 0.29 0.27 0.30 0.28 0.27 0.29 0.28 0.19 0.12 0.07 0.03
0.08 0.08 0.10 0.17 0.30 0.38 0.33 0.26 0.29 0.41 0.48 0.42 0.35 0.31 0.27 0.20 0.18 0.24 0.27 0.19 0.22 0.19 0.18 0.12 0.05 0.03 0.04
0.22 0.26 0.33 0.32 0.29 0.29 0.30 0.28 0.29 0.29 0.34 0.38 0.43 0.37 0.26 0.19 0.16 0.14 0.15 0.15 0.18 0.16 0.07 0.02 0.00 0.00 0.02
0.50 0.47 0.44 0.35 0.28 0.27 0.26 0.24 0.20 0.17 0.29 0.37 0.36 0.35 0.28 0.22 0.15 0.12 0.09 0.11 0.14 0.13 0.04 0.01 0.00 0.00 0.00
0.46 0.50 0.48 0.39 0.30 0.26 0.23 0.23 0.21 0.21 0.21 0.25 0.34 0.34 0.29 0.18 0.14 0.08 0.05 0.06 0.09 0.08 0.02 0.00 0.00 0.00 0.00
0.43 0.37 0.34 0.33 0.36 0.31 0.27 0.23 0.19 0.18 0.19 0.18 0.21 0.26 0.30 0.24 0.16 0.08 0.02 0.02 0.02 0.02 0.00 0.00 0.00 0.00 0.00

GFSFLT2_prec_precacc24_132.txt.gz
Total_Precipitation_Accumulation
0.27 0.22 0.19 0.16 0.16 0.16 0.12 0.07 0.05 0.05 0.02 0.02 0.02 0.02 0.02 0.02 0.02 0.02 0.02 0.03 0.03 0.03 0.03 0.05 0.08 0.08 0.06
0.31 0.24 0.20 0.14 0.13 0.11 0.08 0.06 0.05 0.07 0.08 0.07 0.07 0.06 0.06 0.06 0.07 0.07 0.07 0.06 0.07 0.08 0.08 0.08 0.09 0.13 0.11
0.27 0.22 0.18 0.16 0.17 0.17 0.15 0.11 0.09 0.13 0.13 0.13 0.13 0.11 0.08 0.08 0.08 0.08 0.09 0.08 0.08 0.07 0.08 0.09 0.10 0.12 0.15
0.24 0.21 0.20 0.21 0.26 0.27 0.26 0.24 0.21 0.18 0.18 0.16 0.18 0.15 0.12 0.10 0.08 0.07 0.07 0.07 0.08 0.09 0.10 0.10 0.11 0.14 0.15
0.29 0.28 0.26 0.24 0.24 0.24 0.24 0.20 0.21 0.17 0.16 0.16 0.16 0.16 0.16 0.18 0.15 0.13 0.11 0.12 0.15 0.16 0.16 0.16 0.16 0.17 0.16
0.24 0.24 0.21 0.23 0.26 0.24 0.24 0.25 0.24 0.16 0.17 0.15 0.14 0.14 0.10 0.09 0.13 0.13 0.14 0.16 0.20 0.21 0.21 0.21 0.20 0.19 0.17
0.10 0.12 0.15 0.16 0.22 0.23 0.22 0.21 0.17 0.12 0.15 0.15 0.13 0.16 0.16 0.18 0.29 0.29 0.27 0.32 0.36 0.34 0.29 0.24 0.20 0.15 0.11
0.06 0.08 0.12 0.15 0.20 0.24 0.25 0.26 0.25 0.18 0.15 0.18 0.10 0.10 0.14 0.14 0.26 0.32 0.32 0.32 0.34 0.33 0.31 0.30 0.28 0.26 0.21
0.07 0.10 0.17 0.26 0.30 0.37 0.37 0.34 0.34 0.22 0.18 0.24 0.18 0.17 0.15 0.16 0.24 0.43 0.41 0.32 0.30 0.27 0.24 0.25 0.28 0.29 0.22
0.14 0.15 0.16 0.17 0.23 0.18 0.20 0.35 0.42 0.38 0.31 0.45 0.41 0.35 0.34 0.24 0.17 0.19 0.30 0.34 0.35 0.34 0.33 0.30 0.28 0.21 0.16
0.13 0.13 0.16 0.21 0.27 0.28 0.27 0.29 0.31 0.28 0.24 0.47 0.45 0.50 0.60 0.41 0.30 0.30 0.36 0.35 0.33 0.31 0.29 0.25 0.20 0.15 0.14
0.10 0.11 0.13 0.16 0.20 0.30 0.40 0.50 0.51 0.49 0.39 0.35 0.30 0.26 0.46 0.39 0.29 0.27 0.30 0.28 0.27 0.29 0.29 0.22 0.14 0.08 0.05
0.08 0.08 0.10 0.17 0.30 0.38 0.33 0.26 0.29 0.41 0.49 0.43 0.39 0.33 0.29 0.22 0.19 0.24 0.27 0.19 0.22 0.20 0.20 0.14 0.07 0.04 0.04
0.20 0.25 0.33 0.32 0.29 0.29 0.30 0.28 0.29 0.29 0.34 0.38 0.44 0.39 0.26 0.20 0.16 0.14 0.16 0.16 0.18 0.17 0.07 0.03 0.02 0.01 0.02
0.38 0.43 0.43 0.34 0.27 0.27 0.26 0.25 0.20 0.18 0.29 0.37 0.36 0.35 0.28 0.22 0.15 0.12 0.10 0.12 0.15 0.15 0.05 0.01 0.00 0.00 0.00
0.32 0.44 0.46 0.37 0.30 0.26 0.23 0.24 0.22 0.22 0.21 0.25 0.34 0.34 0.29 0.18 0.14 0.08 0.06 0.06 0.10 0.13 0.04 0.00 0.00 0.00 0.00
0.32 0.30 0.30 0.32 0.37 0.31 0.27 0.23 0.20 0.18 0.19 0.19 0.23 0.27 0.31 0.24 0.16 0.08 0.03 0.02 0.03 0.06 0.02 0.00 0.00 0.00 0.00

GFSFLT2_prec_precacc24_135.txt.gz
Total_Precipitation_Accumulation
0.36 0.31 0.31 0.31 0.33 0.30 0.21 0.11 0.06 0.05 0.02 0.02 0.02 0.02 0.02 0.02 0.02 0.02 0.02 0.03 0.03 0.03 0.03 0.05 0.07 0.08 0.07
0.50 0.41 0.33 0.23 0.17 0.14 0.09 0.06 0.05 0.07 0.08 0.07 0.07 0.06 0.06 0.06 0.07 0.07 0.07 0.06 0.07 0.08 0.08 0.08 0.09 0.12 0.13
0.41 0.33 0.25 0.19 0.18 0.17 0.15 0.11 0.09 0.13 0.13 0.13 0.13 0.11 0.08 0.08 0.08 0.08 0.09 0.08 0.08 0.07 0.08 0.08 0.09 0.11 0.14
0.23 0.21 0.20 0.21 0.26 0.27 0.26 0.24 0.21 0.18 0.18 0.16 0.18 0.15 0.12 0.10 0.08 0.07 0.07 0.07 0.08 0.09 0.10 0.10 0.10 0.12 0.15
0.20 0.23 0.23 0.23 0.24 0.24 0.24 0.20 0.21 0.17 0.16 0.16 0.16 0.16 0.16 0.18 0.15 0.13 0.11 0.12 0.15 0.16 0.16 0.16 0.15 0.15 0.16
0.07 0.12 0.13 0.17 0.24 0.24 0.24 0.25 0.24 0.16 0.17 0.15 0.14 0.14 0.10 0.09 0.13 0.13 0.14 0.17 0.20 0.21 0.21 0.20 0.20 0.18 0.17
0.03 0.05 0.07 0.10 0.19 0.23 0.22 0.22 0.18 0.12 0.15 0.15 0.13 0.16 0.16 0.18 0.29 0.29 0.27 0.32 0.36 0.34 0.29 0.24 0.19 0.14 0.12
0.05 0.07 0.12 0.15 0.20 0.24 0.25 0.26 0.25 0.18 0.15 0.19 0.10 0.10 0.14 0.14 0.26 0.32 0.32 0.32 0.34 0.33 0.31 0.30 0.28 0.25 0.22
0.07 0.10 0.17 0.26 0.30 0.37 0.37 0.34 0.34 0.22 0.18 0.24 0.18 0.17 0.15 0.16 0.24 0.43 0.41 0.32 0.30 0.27 0.24 0.25 0.28 0.30 0.24
0.12 0.15 0.16 0.17 0.23 0.18 0.20 0.35 0.42 0.39 0.31 0.47 0.41 0.35 0.35 0.24 0.17 0.19 0.30 0.34 0.35 0.34 0.34 0.31 0.30 0.22 0.17
0.13 0.13 0.16 0.21 0.27 0.28 0.27 0.29 0.32 0.29 0.25 0.51 0.48 0.50 0.61 0.42 0.30 0.30 0.36 0.35 0.33 0.31 0.29 0.26 0.22 0.17 0.16
0.10 0.11 0.13 0.16 0.20 0.30 0.40 0.50 0.51 0.50 0.39 0.37 0.34 0.28 0.48 0.40 0.29 0.27 0.30 0.28 0.27 0.29 0.29 0.23 0.14 0.09 0.05
0.07 0.08 0.10 0.17 0.30 0.38 0.33 0.26 0.29 0.41 0.49 0.44 0.42 0.34 0.31 0.23 0.20 0.25 0.28 0.19 0.22 0.20 0.20 0.14 0.07 0.04 0.04
0.11 0.13 0.21 0.28 0.28 0.29 0.30 0.28 0.29 0.29 0.34 0.38 0.44 0.40 0.28 0.20 0.17 0.15 0.16 0.16 0.18 0.17 0.07 0.03 0.02 0.01 0.02
0.20 0.21 0.27 0.28 0.24 0.24 0.24 0.24 0.20 0.18 0.29 0.37 0.36 0.35 0.29 0.22 0.16 0.12 0.10 0.12 0.15 0.15 0.05 0.01 0.00 0.00 0.00
0.15 0.22 0.29 0.27 0.21 0.19 0.19 0.22 0.21 0.21 0.21 0.25 0.35 0.34 0.29 0.18 0.14 0.08 0.06 0.06 0.10 0.13 0.04 0.00 0.00 0.00 0.00
0.14 0.14 0.16 0.17 0.22 0.21 0.20 0.21 0.19 0.18 0.19 0.19 0.24 0.29 0.32 0.24 0.16 0.09 0.03 0.02 0.03 0.06 0.02 0.00 0.00 0.00 0.01

GFSFLT2_prec_precacc24_138.txt.gz
Total_Precipitation_Accumulation
0.34 0.30 0.31 0.32 0.35 0.33 0.26 0.16 0.13 0.11 0.06 0.05 0.03 0.02 0.02 0.02 0.02 0.02 0.02 0.03 0.04 0.03 0.03 0.05 0.06 0.06 0.06
0.42 0.36 0.34 0.29 0.23 0.20 0.16 0.12 0.08 0.08 0.08 0.07 0.07 0.06 0.06 0.06 0.07 0.07 0.07 0.06 0.07 0.08 0.07 0.07 0.08 0.11 0.12
0.27 0.22 0.17 0.11 0.10 0.15 0.15 0.12 0.09 0.13 0.13 0.13 0.13 0.11 0.08 0.08 0.08 0.08 0.09 0.08 0.08 0.07 0.08 0.08 0.09 0.11 0.14
0.04 0.05 0.05 0.06 0.10 0.15 0.18 0.21 0.20 0.18 0.18 0.16 0.18 0.15 0.12 0.10 0.08 0.07 0.07 0.07 0.09 0.10 0.10 0.10 0.10 0.12 0.15
0.01 0.02 0.04 0.05 0.06 0.07 0.09 0.13 0.19 0.17 0.16 0.16 0.16 0.16 0.16 0.18 0.15 0.13 0.11 0.12 0.15 0.17 0.17 0.16 0.15 0.15 0.16
0.02 0.03 0.03 0.04 0.07 0.10 0.13 0.17 0.20 0.15 0.17 0.15 0.14 0.14 0.10 0.09 0.13 0.13 0.14 0.18 0.21 0.22 0.21 0.20 0.19 0.17 0.17
0.02 0.02 0.03 0.05 0.10 0.13 0.16 0.18 0.16 0.12 0.15 0.15 0.13 0.16 0.16 0.18 0.29 0.29 0.28 0.32 0.36 0.34 0.29 0.24 0.19 0.15 0.12
0.02 0.03 0.07 0.09 0.16 0.22 0.24 0.26 0.25 0.18 0.15 0.19 0.10 0.10 0.14 0.14 0.26 0.32 0.33 0.32 0.34 0.33 0.31 0.30 0.29 0.26 0.22
0.04 0.07 0.14 0.21 0.27 0.35 0.36 0.34 0.34 0.22 0.18 0.24 0.18 0.17 0.15 0.16 0.24 0.43 0.41 0.32 0.30 0.27 0.24 0.27 0.29 0.30 0.25
0.03 0.05 0.11 0.16 0.22 0.18 0.20 0.35 0.42 0.39 0.31 0.47 0.41 0.36 0.36 0.24 0.17 0.19 0.30 0.34 0.35 0.34 0.34 0.32 0.31 0.22 0.17
0.03 0.05 0.06 0.10 0.17 0.21 0.24 0.29 0.32 0.30 0.25 0.53 0.50 0.50 0.62 0.42 0.30 0.30 0.36 0.35 0.33 0.31 0.29 0.26 0.22 0.17 0.16
0.05 0.05 0.07 0.11 0.17 0.25 0.34 0.48 0.51 0.50 0.39 0.38 0.39 0.29 0.50 0.41 0.29 0.27 0.30 0.28 0.27 0.29 0.29 0.23 0.14 0.09 0.05
0.04 0.05 0.07 0.12 0.20 0.29 0.29 0.26 0.29 0.41 0.49 0.44 0.44 0.36 0.33 0.26 0.22 0.25 0.28 0.19 0.22 0.20 0.20 0.14 0.07 0.04 0.04
0.07 0.06 0.09 0.15 0.19 0.21 0.24 0.25 0.28 0.29 0.34 0.38 0.44 0.43 0.30 0.21 0.18 0.15 0.16 0.17 0.18 0.17 0.07 0.03 0.02 0.01 0.02
0.08 0.11 0.14 0.15 0.14 0.16 0.18 0.20 0.20 0.17 0.29 0.37 0.36 0.36 0.30 0.23 0.16 0.13 0.10 0.12 0.15 0.15 0.06 0.01 0.00 0.00 0.00
0.06 0.09 0.12 0.14 0.14 0.14 0.14 0.16 0.17 0.17 0.18 0.24 0.34 0.35 0.29 0.18 0.14 0.08 0.06 0.07 0.10 0.13 0.05 0.01 0.00 0.00 0.00
0.06 0.04 0.06 0.10 0.15 0.14 0.15 0.16 0.14 0.14 0.16 0.17 0.23 0.30 0.33 0.25 0.16 0.09 0.04 0.03 0.03 0.06 0.02 0.00 0.00 0.00 0.01

GFSFLT2_prec_precacc24_141.txt.gz
Total_Precipitation_Accumulation
0.34 0.30 0.28 0.27 0.25 0.21 0.18 0.13 0.13 0.15 0.09 0.07 0.04 0.02 0.02 0.02 0.02 0.02 0.02 0.03 0.04 0.03 0.03 0.05 0.05 0.05 0.05
0.35 0.33 0.31 0.22 0.15 0.13 0.11 0.08 0.07 0.09 0.09 0.07 0.07 0.06 0.06 0.06 0.07 0.07 0.07 0.06 0.07 0.08 0.07 0.07 0.07 0.10 0.11
0.22 0.18 0.14 0.08 0.03 0.03 0.03 0.03 0.02 0.08 0.10 0.11 0.13 0.10 0.08 0.08 0.08 0.08 0.09 0.08 0.08 0.08 0.08 0.09 0.09 0.11 0.14
0.02 0.01 0.01 0.01 0.02 0.03 0.03 0.03 0.05 0.07 0.11 0.13 0.16 0.15 0.12 0.10 0.08 0.07 0.07 0.07 0.09 0.10 0.11 0.11 0.11 0.12 0.15
0.00 0.01 0.01 0.01 0.02 0.03 0.04 0.05 0.08 0.09 0.10 0.12 0.16 0.16 0.16 0.18 0.15 0.13 0.11 0.12 0.16 0.18 0.18 0.16 0.15 0.15 0.16
0.01 0.01 0.01 0.02 0.03 0.04 0.06 0.12 0.15 0.10 0.11 0.11 0.13 0.14 0.10 0.09 0.13 0.13 0.15 0.18 0.22 0.22 0.21 0.20 0.19 0.17 0.17
0.01 0.01 0.01 0.02 0.05 0.07 0.07 0.12 0.14 0.10 0.12 0.14 0.13 0.16 0.16 0.18 0.29 0.29 0.28 0.33 0.36 0.34 0.29 0.24 0.20 0.15 0.13
0.01 0.01 0.01 0.02 0.05 0.09 0.14 0.18 0.19 0.16 0.15 0.19 0.10 0.10 0.14 0.14 0.26 0.32 0.33 0.32 0.34 0.33 0.32 0.31 0.29 0.26 0.23
0.01 0.01 0.02 0.05 0.08 0.12 0.15 0.19 0.23 0.16 0.14 0.23 0.18 0.17 0.15 0.16 0.24 0.43 0.41 0.32 0.30 0.28 0.25 0.27 0.30 0.31 0.25
0.00 0.00 0.01 0.03 0.08 0.09 0.10 0.19 0.29 0.29 0.21 0.39 0.40 0.36 0.36 0.24 0.17 0.19 0.30 0.34 0.35 0.34 0.34 0.32 0.31 0.23 0.17
0.01 0.00 0.01 0.02 0.05 0.08 0.08 0.15 0.25 0.27 0.24 0.53 0.51 0.51 0.63 0.42 0.30 0.30 0.36 0.35 0.33 0.31 0.29 0.26 0.22 0.17 0.16
0.01 0.01 0.02 0.04 0.06 0.12 0.12 0.17 0.21 0.27 0.27 0.34 0.40 0.31 0.52 0.42 0.30 0.27 0.30 0.28 0.27 0.29 0.29 0.23 0.14 0.09 0.05
0.01 0.01 0.01 0.03 0.08 0.11 0.10 0.10 0.11 0.18 0.27 0.30 0.42 0.37 0.35 0.27 0.23 0.25 0.28 0.19 0.22 0.20 0.20 0.14 0.07 0.04 0.04
0.02 0.01 0.02 0.03 0.05 0.10 0.12 0.10 0.12 0.13 0.22 0.31 0.41 0.43 0.31 0.21 0.19 0.15 0.16 0.17 0.18 0.17 0.07 0.03 0.02 0.01 0.02
0.01 0.02 0.05 0.06 0.06 0.08 0.10 0.11 0.11 0.08 0.15 0.26 0.33 0.36 0.30 0.23 0.16 0.13 0.10 0.12 0.15 0.15 0.06 0.01 0.00 0.00 0.00
0.01 0.02 0.04 0.05 0.07 0.07 0.08 0.11 0.12 0.10 0.11 0.14 0.26 0.31 0.29 0.18 0.14 0.08 0.06 0.07 0.10 0.13 0.05 0.01 0.00 0.00 0.00
0.02 0.02 0.03 0.04 0.07 0.06 0.07 0.08 0.09 0.09 0.10 0.11 0.18 0.27 0.31 0.23 0.16 0.09 0.05 0.03 0.03 0.06 0.02 0.00 0.00 0.00 0.01

GFSFLT2_prec_precacc24_144.txt.gz
Total_Precipitation_Accumulation
0.35 0.30 0.28 0.26 0.23 0.19 0.16 0.11 0.12 0.16 0.10 0.08 0.05 0.04 0.03 0.02 0.02 0.02 0.02 0.03 0.04 0.03 0.03 0.05 0.05 0.05 0.04
0.35 0.33 0.30 0.22 0.15 0.12 0.10 0.07 0.06 0.07 0.07 0.07 0.07 0.06 0.06 0.06 0.07 0.07 0.07 0.06 0.07 0.08 0.07 0.07 0.07 0.10 0.10
0.22 0.19 0.15 0.08 0.03 0.02 0.01 0.01 0.01 0.04 0.07 0.10 0.11 0.10 0.08 0.08 0.08 0.08 0.09 0.08 0.08 0.08 0.08 0.09 0.09 0.11 0.13
0.02 0.02 0.01 0.00 0.00 0.01 0.00 0.00 0.01 0.02 0.06 0.10 0.14 0.13 0.11 0.09 0.08 0.07 0.07 0.07 0.09 0.10 0.11 0.11 0.11 0.12 0.15
0.00 0.01 0.01 0.01 0.01 0.01 0.01 0.00 0.01 0.01 0.02 0.06 0.10 0.13 0.14 0.16 0.15 0.13 0.11 0.12 0.16 0.19 0.19 0.16 0.15 0.15 0.16
0.00 0.01 0.01 0.02 0.02 0.01 0.01 0.01 0.01 0.00 0.01 0.03 0.05 0.06 0.06 0.08 0.13 0.13 0.15 0.18 0.23 0.22 0.21 0.20 0.19 0.17 0.18
0.00 0.00 0.01 0.01 0.02 0.02 0.02 0.03 0.02 0.02 0.04 0.06 0.08 0.13 0.13 0.16 0.26 0.27 0.28 0.34 0.37 0.34 0.29 0.24 0.20 0.16 0.13
0.00 0.00 0.01 0.00 0.01 0.03 0.04 0.05 0.04 0.04 0.06 0.12 0.07 0.08 0.12 0.11 0.25 0.32 0.33 0.32 0.34 0.33 0.32 0.31 0.30 0.27 0.24
0.00 0.00 0.00 0.01 0.02 0.03 0.03 0.05 0.07 0.04 0.02 0.07 0.10 0.12 0.13 0.14 0.24 0.43 0.41 0.32 0.30 0.28 0.25 0.28 0.30 0.32 0.26
0.00 0.00 0.00 0.01 0.01 0.02 0.03 0.09 0.11 0.12 0.03 0.12 0.13 0.13 0.19 0.17 0.15 0.19 0.30 0.34 0.35 0.34 0.34 0.32 0.32 0.23 0.18
0.00 0.00 0.00 0.00 0.00 0.01 0.02 0.05 0.12 0.13 0.10 0.29 0.19 0.13 0.27 0.25 0.25 0.30 0.36 0.35 0.33 0.31 0.29 0.26 0.22 0.17 0.17
0.00 0.00 0.01 0.01 0.00 0.00 0.01 0.02 0.07 0.12 0.12 0.21 0.30 0.19 0.36 0.30 0.24 0.27 0.30 0.28 0.28 0.29 0.29 0.23 0.14 0.09 0.05
0.00 0.01 0.01 0.00 0.00 0.00 0.01 0.02 0.03 0.06 0.10 0.15 0.26 0.27 0.29 0.24 0.20 0.25 0.28 0.19 0.22 0.20 0.20 0.14 0.07 0.04 0.04
0.01 0.00 0.00 0.00 0.01 0.01 0.02 0.01 0.02 0.03 0.06 0.10 0.13 0.20 0.18 0.13 0.17 0.15 0.16 0.17 0.19 0.17 0.07 0.03 0.02 0.01 0.02
0.00 0.00 0.00 0.01 0.01 0.02 0.04 0.04 0.04 0.03 0.05 0.08 0.13 0.16 0.16 0.16 0.13 0.12 0.11 0.12 0.15 0.15 0.06 0.01 0.00 0.00 0.00
0.01 0.01 0.02 0.02 0.03 0.02 0.03 0.05 0.06 0.04 0.04 0.04 0.09 0.13 0.15 0.15 0.14 0.08 0.06 0.07 0.10 0.13 0.05 0.01 0.00 0.00 0.00
0.01 0.01 0.02 0.03 0.04 0.03 0.03 0.04 0.03 0.03 0.04 0.06 0.10 0.16 0.17 0.15 0.13 0.08 0.05 0.03 0.04 0.06 0.02 0.00 0.00 0.00 0.01

GFSFLT2_prec_precacc24_147.txt.gz
Total_Precipitation_Accumulation
0.36 0.31 0.28 0.26 0.23 0.19 0.16 0.10 0.11 0.15 0.09 0.07 0.05 0.04 0.03 0.02 0.02 0.02 0.02 0.03 0.04 0.03 0.03 0.05 0.05 0.05 0.04
0.35 0.34 0.31 0.22 0.15 0.12 0.10 0.07 0.05 0.04 0.02 0.01 0.02 0.03 0.04 0.05 0.06 0.07 0.07 0.06 0.07 0.08 0.07 0.07 0.07 0.10 0.10
0.22 0.19 0.15 0.08 0.03 0.02 0.01 0.01 0.00 0.00 0.00 0.00 0.01 0.02 0.02 0.03 0.06 0.08 0.09 0.08 0.08 0.08 0.08 0.09 0.09 0.11 0.13
0.02 0.01 0.00 0.00 0.00 0.01 0.00 0.00 0.00 0.00 0.00 0.00 0.00 0.01 0.03 0.03 0.04 0.05 0.06 0.07 0.09 0.10 0.11 0.12 0.12 0.13 0.15
0.00 0.00 0.00 0.00 0.00 0.00 0.00 0.00 0.00 0.00 0.00 0.00 0.00 0.00 0.01 0.04 0.06 0.07 0.07 0.10 0.15 0.19 0.19 0.17 0.15 0.15 0.16
0.00 0.00 0.00 0.00 0.00 0.00 0.00 0.00 0.01 0.00 0.00 0.00 0.00 0.00 0.00 0.01 0.05 0.07 0.08 0.13 0.21 0.21 0.21 0.20 0.19 0.18 0.18
0.00 0.00 0.00 0.00 0.00 0.00 0.01 0.01 0.01 0.01 0.02 0.01 0.00 0.00 0.00 0.00 0.05 0.10 0.14 0.22 0.30 0.31 0.28 0.24 0.20 0.16 0.14
0.00 0.00 0.00 0.00 0.00 0.01 0.02 0.02 0.01 0.00 0.00 0.02 0.01 0.00 0.01 0.01 0.05 0.13 0.21 0.25 0.29 0.30 0.30 0.31 0.30 0.27 0.24
0.00 0.00 0.00 0.01 0.01 0.02 0.01 0.02 0.02 0.01 0.00 0.02 0.01 0.02 0.02 0.01 0.04 0.17 0.24 0.24 0.25 0.25 0.24 0.28 0.30 0.32 0.26
0.00 0.00 0.00 0.01 0.01 0.02 0.02 0.04 0.05 0.06 0.01 0.04 0.03 0.04 0.05 0.01 0.00 0.02 0.11 0.16 0.26 0.31 0.34 0.32 0.32 0.23 0.18
0.00 0.00 0.00 0.00 0.00 0.00 0.01 0.01 0.06 0.07 0.05 0.20 0.12 0.02 0.06 0.03 0.01 0.03 0.08 0.19 0.26 0.30 0.29 0.27 0.23 0.18 0.17
0.00 0.00 0.00 0.00 0.00 0.00 0.00 0.01 0.02 0.06 0.03 0.11 0.23 0.11 0.19 0.11 0.03 0.03 0.09 0.13 0.16 0.24 0.29 0.23 0.15 0.10 0.05
0.00 0.00 0.00 0.00 0.00 0.00 0.00 0.00 0.00 0.00 0.01 0.04 0.14 0.13 0.17 0.15 0.08 0.05 0.10 0.11 0.17 0.19 0.20 0.14 0.07 0.04 0.04
0.00 0.00 0.00 0.00 0.00 0.00 0.01 0.00 0.01 0.00 0.00 0.01 0.02 0.09 0.09 0.06 0.10 0.07 0.08 0.12 0.16 0.17 0.07 0.03 0.02 0.01 0.02
0.00 0.00 0.00 0.00 0.00 0.00 0.02 0.02 0.02 0.01 0.01 0.00 0.02 0.04 0.06 0.07 0.05 0.04 0.07 0.10 0.15 0.15 0.06 0.01 0.00 0.00 0.00
0.00 0.01 0.01 0.02 0.01 0.01 0.01 0.03 0.04 0.02 0.01 0.01 0.02 0.03 0.03 0.02 0.03 0.03 0.04 0.06 0.10 0.13 0.05 0.02 0.00 0.00 0.00
0.01 0.01 0.02 0.02 0.02 0.02 0.01 0.02 0.01 0.01 0.01 0.03 0.06 0.09 0.07 0.04 0.04 0.03 0.04 0.02 0.03 0.06 0.02 0.00 0.00 0.00 0.01

GFSFLT2_prec_precacc24_150.txt.gz
Total_Precipitation_Accumulation
0.35 0.31 0.28 0.26 0.24 0.19 0.16 0.10 0.11 0.15 0.09 0.06 0.04 0.02 0.01 0.01 0.01 0.01 0.02 0.03 0.04 0.03 0.03 0.05 0.05 0.05 0.04
0.35 0.34 0.31 0.23 0.15 0.12 0.10 0.07 0.05 0.04 0.02 0.01 0.01 0.00 0.00 0.00 0.01 0.01 0.02 0.02 0.04 0.06 0.07 0.07 0.07 0.10 0.10
0.22 0.19 0.15 0.08 0.03 0.02 0.01 0.01 0.00 0.00 0.00 0.00 0.00 0.00 0.00 0.00 0.00 0.01 0.01 0.02 0.04 0.05 0.07 0.08 0.09 0.11 0.14
0.02 0.01 0.00 0.00 0.00 0.00 0.00 0.00 0.00 0.00 0.00 0.00 0.00 0.00 0.00 0.00 0.00 0.01 0.01 0.02 0.04 0.07 0.09 0.11 0.12 0.13 0.15
0.00 0.00 0.00 0.00 0.00 0.00 0.00 0.00 0.00 0.00 0.00 0.00 0.00 0.00 0.00 0.00 0.00 0.00 0.02 0.02 0.04 0.09 0.12 0.13 0.13 0.14 0.15
0.00 0.00 0.00 0.00 0.00 0.00 0.00 0.00 0.00 0.00 0.00 0.00 0.00 0.00 0.00 0.00 0.00 0.00 0.02 0.05 0.08 0.09 0.11 0.15 0.17 0.17 0.17
0.00 0.00 0.00 0.00 0.00 0.00 0.00 0.01 0.00 0.00 0.00 0.00 0.00 0.00 0.00 0.00 0.00 0.00 0.01 0.04 0.04 0.07 0.10 0.13 0.14 0.14 0.12
0.00 0.00 0.00 0.00 0.00 0.01 0.01 0.01 0.00 0.00 0.00 0.01 0.00 0.00 0.00 0.00 0.00 0.00 0.01 0.01 0.03 0.05 0.08 0.11 0.16 0.19 0.19
0.00 0.00 0.00 0.00 0.01 0.01 0.00 0.01 0.01 0.00 0.00 0.01 0.00 0.00 0.00 0.00 0.00 0.00 0.00 0.01 0.03 0.06 0.11 0.17 0.22 0.27 0.25
0.00 0.00 0.00 0.00 0.00 0.01 0.01 0.02 0.03 0.03 0.00 0.03 0.01 0.01 0.03 0.00 0.00 0.00 0.00 0.02 0.07 0.12 0.19 0.24 0.28 0.20 0.17
0.00 0.00 0.00 0.00 0.00 0.00 0.00 0.01 0.04 0.05 0.02 0.15 0.09 0.01 0.05 0.02 0.00 0.00 0.00 0.00 0.03 0.07 0.13 0.14 0.16 0.16 0.16
0.00 0.00 0.00 0.00 0.00 0.00 0.00 0.00 0.01 0.04 0.01 0.07 0.20 0.08 0.14 0.08 0.02 0.00 0.00 0.01 0.03 0.06 0.10 0.13 0.10 0.07 0.05
0.00 0.00 0.00 0.00 0.00 0.00 0.00 0.00 0.00 0.00 0.00 0.03 0.12 0.09 0.13 0.12 0.07 0.02 0.02 0.01 0.04 0.06 0.09 0.09 0.06 0.04 0.04
0.00 0.00 0.00 0.00 0.00 0.00 0.00 0.00 0.00 0.00 0.00 0.00 0.01 0.07 0.07 0.03 0.06 0.02 0.02 0.04 0.03 0.06 0.04 0.02 0.02 0.01 0.02
0.00 0.00 0.00 0.00 0.00 0.00 0.01 0.01 0.02 0.01 0.00 0.00 0.00 0.02 0.04 0.03 0.02 0.01 0.04 0.04 0.04 0.06 0.05 0.01 0.00 0.00 0.00
0.00 0.00 0.01 0.01 0.01 0.00 0.00 0.02 0.03 0.01 0.01 0.00 0.02 0.02 0.01 0.01 0.01 0.01 0.03 0.04 0.06 0.10 0.05 0.02 0.00 0.00 0.00
0.00 0.01 0.01 0.01 0.01 0.01 0.00 0.01 0.01 0.01 0.01 0.02 0.05 0.08 0.07 0.02 0.01 0.02 0.04 0.02 0.03 0.06 0.02 0.01 0.01 0.00 0.01

GFSFLT2_prec_precacc24_153.txt.gz
Total_Precipitation_Accumulation
0.33 0.30 0.27 0.26 0.24 0.19 0.16 0.10 0.11 0.15 0.09 0.06 0.04 0.02 0.01 0.00 0.00 0.00 0.00 0.01 0.01 0.02 0.02 0.04 0.05 0.05 0.04
0.34 0.34 0.31 0.23 0.15 0.12 0.10 0.07 0.05 0.04 0.02 0.00 0.00 0.00 0.00 0.00 0.00 0.00 0.00 0.00 0.00 0.00 0.02 0.04 0.06 0.09 0.09
0.22 0.19 0.15 0.08 0.03 0.02 0.01 0.01 0.00 0.00 0.00 0.00 0.00 0.00 0.00 0.00 0.00 0.00 0.00 0.00 0.00 0.00 0.02 0.04 0.06 0.10 0.14
0.02 0.01 0.00 0.00 0.00 0.00 0.00 0.00 0.00 0.00 0.00 0.00 0.00 0.00 0.00 0.00 0.00 0.00 0.00 0.00 0.00 0.01 0.03 0.05 0.07 0.10 0.14
0.00 0.00 0.00 0.00 0.00 0.00 0.00 0.00 0.00 0.00 0.00 0.00 0.00 0.00 0.00 0.00 0.00 0.00 0.00 0.00 0.02 0.03 0.05 0.05 0.04 0.07 0.11
0.00 0.00 0.00 0.00 0.00 0.00 0.00 0.00 0.00 0.00 0.00 0.00 0.00 0.00 0.00 0.00 0.00 0.00 0.01 0.02 0.04 0.02 0.02 0.04 0.06 0.07 0.10
0.00 0.00 0.00 0.00 0.00 0.00 0.00 0.01 0.00 0.00 0.00 0.00 0.00 0.00 0.00 0.00 0.00 0.00 0.01 0.03 0.01 0.00 0.00 0.02 0.03 0.05 0.06
0.00 0.00 0.00 0.00 0.00 0.01 0.01 0.01 0.00 0.00 0.00 0.01 0.00 0.00 0.00 0.00 0.00 0.00 0.01 0.00 0.00 0.01 0.01 0.02 0.04 0.07 0.09
0.00 0.00 0.00 0.00 0.00 0.00 0.00 0.01 0.01 0.00 0.00 0.01 0.00 0.00 0.00 0.00 0.00 0.00 0.00 0.00 0.00 0.00 0.01 0.05 0.07 0.11 0.11
0.00 0.00 0.00 0.00 0.00 0.00 0.00 0.01 0.02 0.02 0.00 0.02 0.00 0.01 0.02 0.00 0.00 0.00 0.00 0.00 0.00 0.02 0.05 0.09 0.11 0.06 0.05
0.00 0.00 0.00 0.00 0.00 0.00 0.00 0.00 0.03 0.03 0.01 0.11 0.08 0.01 0.04 0.02 0.00 0.00 0.00 0.00 0.00 0.01 0.05 0.04 0.06 0.07 0.09
0.00 0.00 0.00 0.00 0.00 0.00 0.00 0.00 0.01 0.03 0.01 0.05 0.16 0.07 0.12 0.07 0.01 0.00 0.00 0.00 0.00 0.00 0.01 0.04 0.03 0.02 0.02
0.00 0.00 0.00 0.00 0.00 0.00 0.00 0.00 0.00 0.00 0.00 0.02 0.10 0.08 0.10 0.10 0.06 0.01 0.01 0.00 0.00 0.01 0.02 0.02 0.02 0.00 0.00
0.00 0.00 0.00 0.00 0.00 0.00 0.00 0.00 0.00 0.00 0.00 0.00 0.01 0.06 0.06 0.02 0.05 0.02 0.01 0.03 0.01 0.01 0.01 0.00 0.02 0.01 0.00
0.00 0.00 0.00 0.00 0.00 0.00 0.00 0.00 0.01 0.01 0.00 0.00 0.00 0.01 0.02 0.02 0.01 0.01 0.02 0.01 0.01 0.01 0.01 0.00 0.00 0.00 0.00
0.00 0.00 0.00 0.01 0.00 0.00 0.00 0.00 0.01 0.01 0.01 0.00 0.01 0.01 0.00 0.00 0.00 0.00 0.02 0.01 0.01 0.04 0.03 0.02 0.00 0.00 0.00
0.00 0.00 0.01 0.01 0.01 0.00 0.00 0.01 0.01 0.01 0.00 0.02 0.04 0.07 0.05 0.01 0.00 0.00 0.03 0.01 0.02 0.04 0.02 0.01 0.01 0.00 0.01